User: anonymous
Location: Mentone
(34.5413°N, 85.5351°W)
Time: 22:41:07
(UTC-05:00)
Language:

ATLAS 5 CENTAUR R/B - Orbit

View from above orbital plane
View from above orbital plane
View from above satellite
View from above satellite

Ground track
Ground track

The orbit data is extracted from the following two-line orbital elements,

1 31702U 07027B   14292.75003876 0.00000700  00000-0  29752-3 0    01
2 31702  63.3770 171.0294 0163000 350.9445   9.0555 14.18201930    08
Epoch (UTC): 19 October 2014 18:00:03
Eccentricity: 0.0163000
inclination: 63.3770°
perigee height: 714 km
apogee height: 949 km
right ascension of ascending node: 171.0294°
argument of perigee: 350.9445°
revolutions per day: 14.18201930
mean anomaly at epoch: 9.0555°
orbit number at epoch: 0

The dashed part of the orbit path shows where the satellite is in the earth's shadow,  

DLR